[[{"header":{"parameterUnit":"m.s-1","parameterCategory":1,"la1":30.2991,"la2":30.254,"lo1":-89.0895,"lo2":-89.0444,"dy":0.0017,"dx":0.0017,"nx":28,"ny":28,"refTime":"2025-08-17T09:00:00:Z","depth":0,"parameterNumber":2,"parameterNumberName":"U-component_of_WINDS"},"data":[0,0,0,0,0,0,0,0,0,0,0,0,0,0,0,0,0,0,0,0,0,0,0,0,0,0,0,0,0,0,0,0,0,0,0,0,0,0,0,0,0,0,0,0,0,0,0,0,0,0,0,0,0,0,0,0,0,0,-2.0608,-2.0606,0,-2.0442,-2.044,-2.0438,-2.0354,-2.0354,-2.0354,-2.0354,-2.0163,-2.0158,-2.0153,0,0,0,0,0,0,0,0,0,0,0,0,0,-2.0833,-2.0829,-2.0608,-2.0606,-2.0604,-2.0443,-2.044,-2.0438,-2.0354,-2.0354,-2.0354,-2.0354,-2.0165,-2.0159,-2.0153,0,0,0,0,0,0,0,0,0,0,0,0,0,-2.0707,-2.0828,-2.0608,-2.0543,-2.0536,-2.0443,-2.044,-2.0437,-2.0354,-2.0354,-2.0354,-2.0354,-2.0167,-2.016,-2.0152,-2.0105,0,0,-2.0129,-2.0125,0,0,0,0,0,0,0,0,-2.0715,-2.0699,-2.0555,-2.0548,-2.0539,-2.0419,-2.0449,-2.0325,-2.0354,-2.0423,-2.0354,-2.0354,-2.0247,-2.0233,-2.0201,-2.0096,-2.0088,-2.0128,-2.0123,-2.012,-2.0118,0,0,0,0,0,0,0,-2.0723,-2.0706,-2.0542,-2.0553,-2.0543,-2.0516,-2.0498,-2.0425,-2.0336,-2.0417,-2.041,-2.0393,-2.0243,-2.0209,-2.0196,-2.0085,-2.0128,-2.0122,-2.0117,-2.0114,-1.993,-1.993,0,0,0,0,0,0,-2.0745,-2.0714,-2.0547,-2.0537,-2.0629,-2.0512,-2.0492,-2.0457,-2.0337,-2.0319,-2.0393,-2.039,-2.0222,-2.0205,-2.0189,-2.0125,-2.012,-2.0113,-2.0109,-1.993,-1.993,-1.993,0,0,0,0,0,0,-2.0751,-2.0732,-2.0554,-2.0624,-2.0599,-2.0508,-2.047,-2.0454,-2.0421,-2.0319,-2.0301,-2.0376,-2.0221,-2.02,-2.0128,-2.0117,-2.011,-2.0103,-1.9931,-1.993,-1.993,-1.9998,0,0,0,0,0,0,-2.0758,-2.0734,-2.072,-2.0624,-2.0596,-2.0502,-2.0469,-2.0451,-2.041,-2.0404,-2.0299,-2.0281,-2.0219,-2.014,-2.012,-2.0107,-2.0097,-1.9931,-1.993,-1.993,-1.9996,-2.0,-2.0003,0,0,0,0,0,-2.0766,-2.0741,-2.072,-2.07,-2.0577,-2.0501,-2.0484,-2.042,-2.041,-2.0392,-2.0326,-2.0284,-2.0122,-2.0133,-2.011,-2.0094,-1.9931,-1.9931,-1.993,-1.9995,-1.9999,-2.0003,0,0,0,0,0,0,-2.0831,-2.0727,-2.0702,-2.0647,-2.0585,-2.0488,-2.0463,-2.0427,-2.036,-2.0357,-2.0273,-2.025,-2.0185,-2.0131,-2.0146,-2.0041,-2.0022,-2.0017,-2.0079,-2.0082,-2.0086,-2.0099,-2.009,0,0,0,0,0,-2.084,-2.0794,-2.0703,-2.0663,-2.0634,-2.0554,-2.0518,-2.0475,-2.0404,-2.0375,-2.0304,-2.0231,-2.0163,-2.0119,-2.0051,-1.9988,-1.9962,-1.9965,-1.9969,-1.9972,-1.9968,-1.9928,-1.9928,-1.9927,-1.9927,-1.9927,0,0,-2.0856,-2.0794,-2.0768,-2.0675,-2.0621,-2.0569,-2.0532,-2.0478,-2.0437,-2.0364,-2.0294,-2.0239,-2.0151,-2.0084,-2.005,-2.0037,-1.9963,-1.9972,-1.9975,-1.9969,-1.9928,-1.9928,-1.9928,-1.9927,-1.9927,-1.9927,0,0,-2.0859,-2.0809,-2.077,-2.0719,-2.064,-2.0588,-2.0579,-2.0487,-2.045,-2.038,-2.0325,-2.027,-2.0156,-2.0096,-2.005,-2.0031,-1.9988,-2.001,-2.0027,-1.999,-1.999,-1.9989,-1.9981,-1.9979,-2.0006,-2.0006,-2.0006,0,-2.0887,-2.0813,-2.0753,-2.0704,-2.0662,-2.0602,-2.0558,-2.0508,-2.0409,-2.0379,-2.0368,-2.0224,-2.016,-2.0077,-2.0073,-2.0038,-2.002,-2.0021,-1.9996,-1.9995,-1.9993,-1.9984,-1.9981,-2.001,-2.0009,-2.0009,-2.0009,0,-2.0851,-2.08,-2.0776,-2.069,-2.0646,-2.0599,-2.0526,-2.0487,-2.0448,-2.0395,-2.0321,-2.0243,-2.0158,-2.0135,-2.0093,-2.0045,-2.0039,-2.0013,-1.9992,-1.9998,-1.9987,-1.9983,-2.0014,-2.0013,-2.0012,-2.0011,0,0,-2.0889,-2.0773,-2.0765,-2.0725,-2.0634,-2.059,-2.0538,-2.0463,-2.043,-2.0362,-2.0314,-2.022,-2.0196,-2.0144,-2.0093,-2.0061,-2.0049,-2.0038,-2.0034,-2.0041,-1.9988,-2.0008,-2.0005,-2.0021,-2.002,-2.0019,-1.9995,0,-2.0878,-2.0792,-2.0736,-2.0669,-2.0619,-2.056,-2.0514,-2.045,-2.0399,-2.0344,-2.0283,-2.0218,-2.0192,-2.016,-2.0126,-2.0058,-2.0036,-2.0059,-1.9969,-1.9967,-1.9993,-2.0,-2.0021,-2.0002,-1.9991,-1.999,-1.9989,0,-2.0854,-2.0797,-2.0727,-2.0643,-2.0619,-2.0581,-2.0506,-2.0456,-2.038,-2.0344,-2.0288,-2.0238,-2.0175,-2.0161,-2.007,-2.0086,-2.0045,-2.0006,-2.0004,-1.9992,-1.9978,-1.9986,-1.9994,-1.9991,-1.9982,-1.9983,-1.9983,0,-2.0889,-2.0792,-2.0738,-2.0705,-2.0605,-2.0579,-2.0535,-2.046,-2.0417,-2.0349,-2.032,-2.0244,-2.0201,-2.0139,-2.0068,-2.0064,-1.9983,-1.9962,-1.9946,-1.9948,-1.9931,-1.9933,-1.9931,-1.9907,-1.9907,-1.9907,-1.9907,0,-2.0882,-2.0841,-2.0753,-2.0719,-2.067,-2.0603,-2.0554,-2.0503,-2.0437,-2.0388,-2.0329,-2.0283,-2.0193,-2.0133,-2.0075,-2.0007,-1.9988,-1.9953,-1.9938,-1.9958,-1.9962,-1.9929,-1.9928,-1.9906,-1.9907,-1.9907,-1.9907,0,-2.0911,-2.0851,-2.0788,-2.07,-2.0677,-2.0644,-2.0565,-2.0527,-2.0474,-2.0412,-2.0393,-2.0306,-2.0233,-2.0157,-2.0055,-2.0017,-1.995,-1.993,-1.9979,-1.997,-1.9958,-1.996,-1.9934,-1.9926,-1.9909,-1.991,-1.991,0,-2.0911,-2.0879,-2.079,-2.0757,-2.0716,-2.0662,-2.062,-2.0552,-2.0509,-2.0421,-2.0392,-2.0317,-2.0253,-2.0138,-2.0061,-1.9982,-1.9958,-1.9955,-1.9945,-1.9966,-1.9956,-1.9959,-1.9954,-1.9957,-1.9958,-1.9958,-1.9959,0,-2.0916,-2.0888,-2.0835,-2.077,-2.0724,-2.0668,-2.0609,-2.0583,-2.0501,-2.0456,-2.0385,-2.0336,-2.0236,-2.016,-2.0073,-2.0018,-1.9973,-1.9963,-1.9955,-1.9974,-2.0003,-1.9986,-1.9986,-1.9963,-1.9963,-1.9962,-1.9962,-1.9962,-2.0929,-2.0898,-2.0831,-2.0772,-2.0723,-2.0669,-2.063,-2.0574,-2.0516,-2.0435,-2.0395,-2.0323,-2.0244,-2.0124,-2.0071,-2.0009,-1.9996,-1.9984,-1.9981,-1.9979,-1.9984,-2.0016,-1.9993,-1.9992,-1.9992,-1.9992,-1.9992,0,-2.093,-2.0885,-2.0833,-2.0756,-2.0708,-2.0678,-2.0611,-2.0571,-2.0512,-2.0446,-2.0386,-2.0302,-2.0228,-2.0147,-2.0067,-2.0032,-2.0009,-2.0013,-2.0014,-2.0001,-2.0001,-2.0016,-2.0033,-2.0033,-2.0033,-2.0033,-2.0033,-2.0033,-2.0925,-2.0871,-2.0836,-2.0754,-2.0707,-2.0642,-2.0607,-2.0555,-2.0502,-2.0415,-2.0356,-2.0307,-2.0232,-2.0146,-2.0075,-2.0052,-2.0024,-2.0034,-2.0005,-2.0005,-2.0002,-1.9999,-2.0012,-2.0029,-2.0029,-2.001,-2.001,-2.001]},{"header":{"parameterUnit":"m.s-1","parameterCategory":1,"la1":30.2991,"la2":30.254,"lo1":-89.0895,"lo2":-89.0444,"dy":0.0017,"dx":0.0017,"nx":28,"ny":28,"refTime":"2025-08-17T09:00:00:Z","depth":0,"parameterNumber":3,"parameterNumberName":"V-component_of_WINDS"},"data":[0,0,0,0,0,0,0,0,0,0,0,0,0,0,0,0,0,0,0,0,0,0,0,0,0,0,0,0,0,0,0,0,0,0,0,0,0,0,0,0,0,0,0,0,0,0,0,0,0,0,0,0,0,0,0,0,0,0,0.27,0.2697,0,0.2346,0.2342,0.2338,0.2201,0.2202,0.2203,0.2204,0.1836,0.1826,0.1815,0,0,0,0,0,0,0,0,0,0,0,0,0,0.3255,0.3246,0.2701,0.2696,0.2692,0.2347,0.2342,0.2337,0.2201,0.2202,0.2203,0.2205,0.184,0.1827,0.1814,0,0,0,0,0,0,0,0,0,0,0,0,0,0.2969,0.3243,0.2702,0.2583,0.2568,0.2348,0.2342,0.2335,0.2201,0.2202,0.2204,0.2205,0.1844,0.1828,0.1813,0.1682,0,0,0.1763,0.1756,0,0,0,0,0,0,0,0,0.2985,0.2949,0.2605,0.259,0.2574,0.2319,0.2402,0.2116,0.22,0.234,0.2204,0.2206,0.1996,0.1967,0.1897,0.1665,0.1649,0.1762,0.1752,0.1745,0.1741,0,0,0,0,0,0,0,0.3005,0.2963,0.256,0.26,0.2581,0.2545,0.2506,0.2347,0.2163,0.2328,0.2317,0.2278,0.1987,0.1913,0.1887,0.1644,0.1762,0.1748,0.1738,0.1732,0.1287,0.1284,0,0,0,0,0,0,0.3046,0.2981,0.2571,0.255,0.2788,0.2534,0.249,0.24,0.2165,0.2131,0.2277,0.2273,0.194,0.1906,0.1874,0.1706,0.1745,0.173,0.1721,0.1289,0.1286,0.1284,0,0,0,0,0,0,0.3058,0.301,0.2586,0.2762,0.2705,0.2523,0.2422,0.2392,0.2317,0.2126,0.2092,0.2235,0.194,0.1897,0.1731,0.1691,0.1723,0.1708,0.1291,0.1288,0.1285,0.137,0,0,0,0,0,0,0.3074,0.3016,0.2966,0.2762,0.2696,0.2451,0.2419,0.2384,0.229,0.2282,0.2077,0.2045,0.1937,0.1756,0.1715,0.167,0.1696,0.1294,0.129,0.1286,0.137,0.137,0.137,0,0,0,0,0,0.3095,0.3003,0.2964,0.2915,0.263,0.2449,0.2411,0.2291,0.2288,0.2235,0.2112,0.2052,0.1702,0.174,0.1693,0.1642,0.1296,0.1291,0.1286,0.137,0.137,0.137,0,0,0,0,0,0,0.3205,0.2974,0.2928,0.2768,0.2629,0.2426,0.2356,0.2295,0.2153,0.215,0.2005,0.196,0.1806,0.1707,0.1754,0.1503,0.1495,0.148,0.1574,0.1573,0.1573,0.16,0.1682,0,0,0,0,0,0.3211,0.3085,0.2889,0.2766,0.2699,0.254,0.2456,0.2376,0.2225,0.2166,0.203,0.1886,0.1743,0.1652,0.151,0.1354,0.1308,0.1296,0.1296,0.1297,0.1287,0.1196,0.1189,0.1268,0.1268,0.1268,0,0,0.3221,0.3079,0.3008,0.2784,0.2668,0.2539,0.2491,0.2357,0.2259,0.2144,0.1981,0.1876,0.1705,0.1544,0.1466,0.1457,0.1254,0.1291,0.1293,0.1281,0.1191,0.1183,0.1177,0.1264,0.1265,0.1266,0,0,0.3174,0.3055,0.2939,0.2824,0.2648,0.2542,0.2515,0.232,0.2248,0.2081,0.1992,0.1873,0.1631,0.1512,0.1421,0.1329,0.1268,0.1286,0.1287,0.1201,0.1195,0.1189,0.1156,0.1146,0.1276,0.1276,0.1276,0,0.3209,0.3013,0.2888,0.2758,0.2662,0.2553,0.2434,0.2327,0.2114,0.2049,0.2042,0.1735,0.1612,0.1422,0.14,0.1329,0.1292,0.1309,0.1206,0.1199,0.1191,0.1158,0.1146,0.128,0.1279,0.1279,0.1279,0,0.3064,0.2929,0.2857,0.2655,0.2551,0.2427,0.2282,0.219,0.2119,0.2014,0.1845,0.1694,0.152,0.1468,0.1396,0.1267,0.1267,0.1235,0.1223,0.1189,0.1156,0.1142,0.1285,0.1284,0.1283,0.1282,0,0,0.3077,0.2808,0.2784,0.2691,0.2489,0.2381,0.2252,0.2083,0.2008,0.1863,0.1751,0.1549,0.1518,0.1413,0.1327,0.1251,0.1188,0.1227,0.1221,0.1226,0.1037,0.1063,0.1051,0.1147,0.1144,0.1141,0.1052,0,0.3004,0.2771,0.2654,0.247,0.2344,0.2238,0.2126,0.1989,0.1887,0.1764,0.165,0.151,0.1479,0.1416,0.1336,0.1213,0.1149,0.1218,0.104,0.1035,0.1087,0.1033,0.106,0.0983,0.1038,0.1035,0.1034,0,0.2887,0.2746,0.2551,0.2364,0.2306,0.2207,0.2043,0.1926,0.1768,0.1699,0.1584,0.1499,0.1358,0.1356,0.1159,0.1209,0.1129,0.1058,0.1051,0.103,0.1033,0.1011,0.0955,0.0944,0.1012,0.1014,0.1015,0,0.2917,0.2678,0.253,0.2453,0.2231,0.2164,0.2068,0.1911,0.1817,0.1673,0.161,0.1451,0.1364,0.1242,0.1116,0.1127,0.0931,0.0919,0.087,0.0873,0.0833,0.0838,0.0765,0.0782,0.0782,0.0782,0.0782,0,0.2848,0.2733,0.2541,0.245,0.2317,0.2183,0.2054,0.195,0.1811,0.1697,0.1596,0.149,0.1331,0.1205,0.1105,0.0957,0.0918,0.0858,0.0833,0.0867,0.0875,0.0813,0.0815,0.0779,0.078,0.078,0.0781,0,0.2859,0.2726,0.2558,0.2361,0.2309,0.222,0.2051,0.1958,0.1851,0.1708,0.1666,0.1499,0.1345,0.1208,0.1004,0.0937,0.0786,0.0755,0.0841,0.0827,0.0785,0.0792,0.067,0.0647,0.0681,0.0681,0.068,0,0.2824,0.2733,0.2527,0.2444,0.2351,0.2218,0.2122,0.1985,0.1889,0.1702,0.1632,0.1472,0.1336,0.1096,0.0955,0.0799,0.0763,0.0731,0.0738,0.0776,0.0762,0.077,0.076,0.0732,0.0733,0.0733,0.0733,0,0.2776,0.2714,0.2581,0.2423,0.2312,0.2181,0.2047,0.1985,0.1823,0.172,0.1563,0.1458,0.1251,0.1093,0.0921,0.0819,0.0749,0.0732,0.0712,0.0746,0.08,0.0771,0.0844,0.0735,0.0735,0.0735,0.0735,0.0735,0.2762,0.2676,0.2518,0.2372,0.2258,0.2135,0.2038,0.192,0.1787,0.1609,0.1536,0.1377,0.1219,0.0981,0.0881,0.0753,0.074,0.0711,0.0704,0.0699,0.0705,0.0821,0.0721,0.0721,0.0721,0.072,0.072,0,0.2709,0.2602,0.2469,0.2286,0.2171,0.2116,0.1965,0.1872,0.1733,0.1594,0.1463,0.1282,0.1129,0.0976,0.0814,0.0741,0.0704,0.0703,0.0707,0.0685,0.0726,0.076,0.0735,0.0735,0.0735,0.0735,0.0735,0.0735,0.2667,0.252,0.244,0.2233,0.2126,0.1971,0.1889,0.1775,0.1663,0.1467,0.1339,0.1241,0.1095,0.0922,0.0778,0.0736,0.0682,0.0689,0.0639,0.0681,0.0682,0.0682,0.0713,0.0678,0.0678,0.0608,0.0607,0.0607]}]]